Content
SEND FEEDBACK

Daily
Averages
Monthly
Summary
United States of America

LITTLE VALLEY, OREGON


Home > North America > United States > Oregon
Elevation: 2500 feet     Latitude: 43 53N     Longitude: 117 29W

WEATHER
 
SELECT A DAY
Number of Records: 167,732;   Date Range: 4/9/97 - 11/25/14
 
SHARE

PRINT THIS DATA

[ ← Previous Day ]
WEATHER ALMANAC - JANUARY 3, 2013
[ Next Day → ]
[ °C ]   °F
Weather ElementAverageHighLow
Temperature5.3 °F15.1 °F (2:53 pm)-0.9 °F (7:53 am)
Dewpoint0.2 °F6.1 °F (1:53 pm)-5.1 °F (6:53 am)
Humidity79.5 %92 % (10:53 am)68 % (2:53 pm)
Barometer30.70 in30.74 in (9:53 am)30.65 in (3:53 pm)
Wind Speed3.4 mph5.8 mph (2:53 am)
Weather ElementAverage
Visibility7.8 mi
Wind DirectionSSW (189.5 °)

Weather ElementTotal
Precipitation---
Heating Degree Days57.9 (Base 65)
Averaged from 21 records on January 3, 2013
WEATHER CONDITIONS BREAKOUT
WIND DIRECTION BREAKOUT
WEATHER BY HOUR - JANUARY 3, 2013
[ °C ]   °F
Local TimeTemperatureDewpointHumidityBarometerVisibilityWind DirectionWind SpeedGust SpeedPrecipitationEventsConditions
2:53 AM3.0 °F-0.9 °F84 %30.71 in9.0 miWSW (240°)5.8 mphClear
3:53 AM1.9 °F-2.0 °F83 %30.70 in8.0 miWest (260°)3.5 mphClear
4:53 AM1.9 °F-2.0 °F83 %30.69 in10.0 miWSW (250°)5.8 mphClear
5:53 AM1.0 °F-4.0 °F79 %30.70 in9.0 miWSW (240°)5.8 mphClear
6:53 AM0.0 °F-5.1 °F79 %30.71 in10.0 miCalmClear
7:53 AM-0.9 °F-5.1 °F83 %30.72 in9.0 miWest (280°)3.5 mphClear
8:53 AM-0.9 °F-5.1 °F83 %30.72 in7.0 miWest (260°)4.6 mphClear
9:53 AM1.9 °F-2.0 °F83 %30.74 in6.0 miWSW (240°)5.8 mphClear
10:53 AM5.0 °F3.0 °F92 %30.74 in7.0 miSW (220°)3.5 mphClear
11:53 AM8.1 °F5.0 °F87 %30.73 in7.0 miSW (230°)3.5 mphClear
12:53 PM12.0 °F5.0 °F73 %30.69 in7.0 miCalmClear
1:53 PM14.0 °F6.1 °F71 %30.66 in8.0 miCalmClear
2:53 PM15.1 °F6.1 °F68 %30.66 in8.0 miSW (230°)4.6 mphClear
3:53 PM15.1 °F6.1 °F68 %30.65 in9.0 miWSW (250°)3.5 mphClear
5:53 PM12.9 °F6.1 °F74 %30.66 in7.0 miCalmClear
6:53 PM9.0 °F3.0 °F77 %30.67 in7.0 miCalmClear
7:53 PM3.0 °F-2.0 °F80 %30.69 in7.0 miSW (230°)5.8 mphClear
8:53 PM5.0 °F0.0 °F80 %30.70 in7.0 miWNW (290°)3.5 mphClear
9:53 PM1.9 °F-2.0 °F83 %30.71 in7.0 miWSW (250°)4.6 mphClear
10:53 PM1.9 °F-2.9 °F80 %30.72 in7.0 miWSW (250°)3.5 mphClear
11:53 PM1.0 °F-4.0 °F79 %30.72 in7.0 miWest (260°)4.6 mphClear
Hourly data recorded from KONO, located miles away from Little Valley, Oregon







STORIES FROM OUR PARTNERS